< < Back
Terminal Aerodrome Forecast


Current Version              Previous Versions:   1  2  3  4  5  6  7  8  9  

Terminal Aerodrome Forecast

187
FTUS42 KILM 242300 CCA
TAFFLO
TAF COR
KFLO 242359Z 2500/2524 VRB10KT 4SM -TSRA SCT015 BKN040CB
      TEMPO 2500/2502 2SM TSRA
     FM250300 VRB03KT P6SM SCT050 SCT100 BKN250
      TEMPO 2508/2512 4SM BR
     FM251400 01005KT P6SM VCSH SCT050 BKN100=

Latest METAR

847
SAUS70 KWBC 251100
MTRFLO
METAR KFLO 251053Z 05006KT 2SM BR OVC003 23/22 A2998 RMK AO2 SLP149
T02280217


USA.gov is the U.S. government's official web portal to all federal, state and local government web resources and services.